Location: Beaver Brook Trail
(44.0290°N, 71.8137°W)
Time: 09:10:01
(UTC+00:00)

ARIANE 6 FM1 Upper Stage - Pass Details

Date: 20 October 2024
Orbit: 558 x 596 km, 62.0° (Epoch: 11 November)

Event Time Altitude Azimuth Distance (km) Brightness Sun altitude
Rises 01:16:52 0° 306° (NW) 2,835 7.2 -36.3°
Reaches altitude 10° 01:19:41 10° 288° (WNW) 1,933 6.1 -36.8°
Enters shadow 01:20:38 14° 277° (W) 1,701 5.7 -36.9°
